Zurück zum Katalog

STARLINK-3605

AktivKommunikationVLEO
NORAD 51805·PAYLOAD·🇺🇸 United States

Gestartet Feb 25, 2022 von Vandenberg Space Force Base

Loading…

Nächste Überflüge (nächste 24 Stunden)

TLE

AktuellSource: CelesTrak SupGP

Epoche: Sep 14, 2026, 14:09 UTC

1 51805C 22017AP  26257.59006944 -.00005812  00000+0 -17642-3 0  2577
2 51805  53.1592 191.4671 0001369  88.9315 163.3555 15.33542151    17

Verfolge STARLINK-3605 in Echtzeit mit AllMySat

Download on the App Store